Date String (YYYY-MM-DD hh:mm:ss) UTC,Instrument flags,absolute air pressure of the measurement (hPa),sample flow rate (lpm),inlet stack bypass flow (lpm),air temperature of the measurement (°C),ambient temperature measured by the external sensor (°C),aerosol sample conditioner tube jacket temperature (°C),OPC LED temperature (°C),internal box temperature (°C),relative humidity of the measurement (%),span deviation,mass concentration of particles derived from Lorenz-Mie calculation of OPC scattering (μg/m³),mass concentration of particles derived from Lorenz-Mie calculation of OPC scattering (μg/m³),mass concentration of particles derived from Lorenz-Mie calculation of OPC scattering (μg/m³)
DateTimeUTC,F1_M11,P_M11,Q1_M11,Q2_M11,T1_M11,T2_M11,T3_M11,T4_M11,T5_M11,U1_M11,ZSPAN_M11,X2_M11,X0_M11,X1_M11
2023-08-11 16:00:00,SystemResetWarning,0831.3,5.00,000.00,029.0,027.5,000.0,037.4,030.8,26.2,0000.0,0004.45,0009.13,0003.90
2023-08-11 16:01:00,SystemResetWarning,0831.3,5.01,000.00,029.1,027.7,000.0,037.5,030.8,25.7,0000.0,0004.47,0009.33,0003.92
2023-08-11 16:02:00,SystemResetWarning,0831.3,5.00,000.00,029.1,026.8,000.0,037.4,030.6,25.6,0000.0,0004.51,0009.38,0003.94
2023-08-11 16:03:00,SystemResetWarning,0831.3,5.00,000.00,029.0,025.4,000.0,037.3,030.3,25.9,0000.0,0004.52,0009.43,0003.95
2023-08-11 16:04:00,SystemResetWarning,0831.3,5.01,000.00,029.0,025.3,000.0,037.2,030.3,27.4,0000.0,0004.53,0009.44,0003.96
2023-08-11 16:05:00,SystemResetWarning,0831.3,5.00,000.00,028.9,025.6,000.0,037.2,030.2,25.4,0000.0,0004.55,0009.49,0003.97
2023-08-11 16:06:00,SystemResetWarning,0831.3,5.00,000.00,028.9,026.0,000.0,037.3,030.3,24.9,0000.0,0004.56,0009.44,0003.98
2023-08-11 16:07:00,SystemResetWarning,0831.3,5.00,000.00,028.9,026.4,000.0,037.3,030.5,25.6,0000.0,0004.59,0010.14,0003.97
2023-08-11 16:08:00,SystemResetWarning,0831.3,5.00,000.00,028.9,026.8,000.0,037.3,030.6,25.8,0000.0,0004.59,0010.35,0003.96
2023-08-11 16:09:00,SystemResetWarning,0831.3,5.00,000.00,028.9,027.1,000.0,037.4,030.7,25.2,0000.0,0004.56,0010.06,0003.96
2023-08-11 16:10:00,SystemResetWarning,0831.3,5.00,000.00,029.0,027.4,000.0,037.4,030.8,24.6,0000.0,0004.54,0009.47,0003.96
2023-08-11 16:11:00,SystemResetWarning,0831.4,4.99,000.00,029.0,027.4,000.0,037.4,030.8,24.8,0000.0,0004.51,0009.37,0003.95
2023-08-11 16:12:00,SystemResetWarning,0831.4,4.98,000.00,029.0,026.1,000.0,037.2,030.4,24.6,0000.0,0004.53,0009.27,0003.93
2023-08-11 16:13:00,SystemResetWarning,0831.3,5.01,000.00,028.9,025.1,000.0,037.1,030.2,25.3,0000.0,0004.49,0009.21,0003.91
2023-08-11 16:14:00,SystemResetWarning,0831.4,5.02,000.00,028.9,025.4,000.0,037.1,030.2,24.6,0000.0,0004.48,0009.30,0003.91
2023-08-11 16:15:00,SystemResetWarning,0831.4,5.00,000.00,028.8,025.7,000.0,037.2,030.2,24.3,0000.0,0004.47,0009.31,0003.89
2023-08-11 16:16:00,SystemResetWarning,0831.4,4.99,000.00,028.8,026.1,000.0,037.2,030.3,26.2,0000.0,0004.41,0009.12,0003.88
2023-08-11 16:17:00,SystemResetWarning,0831.4,5.01,000.00,028.8,026.5,000.0,037.3,030.5,25.7,0000.0,0004.38,0009.04,0003.88
2023-08-11 16:18:00,SystemResetWarning,0831.4,5.01,000.00,028.9,026.9,000.0,037.3,030.6,25.2,0000.0,0004.34,0008.73,0003.87
2023-08-11 16:19:00,SystemResetWarning,0831.4,4.99,000.00,028.9,027.2,000.0,037.3,030.7,26.2,0000.0,0004.32,0008.47,0003.86
2023-08-11 16:20:00,SystemResetWarning,0831.4,4.99,000.00,029.0,027.4,000.0,037.3,030.7,26.3,0000.0,0004.33,0008.51,0003.86
2023-08-11 16:21:00,SystemResetWarning,0831.3,5.00,000.00,029.0,027.5,000.0,037.3,030.8,25.3,0000.0,0004.34,0008.32,0003.86
2023-08-11 16:22:00,SystemResetWarning,0831.3,4.99,000.00,029.0,026.3,000.0,037.2,030.5,27.0,0000.0,0004.35,0008.37,0003.87
2023-08-11 16:23:00,SystemResetWarning,0831.3,5.01,000.00,028.9,025.2,000.0,037.1,030.2,27.4,0000.0,0004.34,0008.20,0003.87
2023-08-11 16:24:00,SystemResetWarning,0831.4,5.02,000.00,028.9,025.3,000.0,037.1,030.2,27.8,0000.0,0004.34,0008.13,0003.87
2023-08-11 16:25:00,SystemResetWarning,0831.3,5.00,000.00,028.8,025.7,000.0,037.1,030.2,28.3,0000.0,0004.35,0008.00,0003.88
2023-08-11 16:26:00,SystemResetWarning,0831.3,5.00,000.00,028.8,026.1,000.0,037.2,030.3,28.5,0000.0,0004.32,0007.90,0003.87
2023-08-11 16:27:00,SystemResetWarning,0831.3,5.00,000.00,028.8,026.5,000.0,037.2,030.4,28.0,0000.0,0004.33,0008.17,0003.87
2023-08-11 16:28:00,SystemResetWarning,0831.4,5.00,000.00,028.9,026.8,000.0,037.2,030.5,27.6,0000.0,0004.34,0008.61,0003.87
2023-08-11 16:29:00,SystemResetWarning,0831.4,5.00,000.00,028.9,027.1,000.0,037.3,030.6,28.3,0000.0,0004.35,0008.52,0003.88
2023-08-11 16:30:00,SystemResetWarning,0831.4,5.00,000.00,028.9,027.4,000.0,037.3,030.7,28.5,0000.0,0004.36,0008.28,0003.88
2023-08-11 16:31:00,SystemResetWarning,0831.4,5.00,000.00,029.0,027.6,000.0,037.3,030.8,27.7,0000.0,0004.35,0008.34,0003.87
2023-08-11 16:32:00,SystemResetWarning,0831.4,4.98,000.00,029.0,026.5,000.0,037.2,030.5,27.3,0000.0,0004.35,0008.32,0003.87
2023-08-11 16:33:00,SystemResetWarning,0831.4,5.01,000.00,028.9,025.2,000.0,037.1,030.2,27.0,0000.0,0004.32,0008.08,0003.85
2023-08-11 16:34:00,SystemResetWarning,0831.4,5.01,000.00,028.9,025.2,000.0,037.0,030.2,27.6,0000.0,0004.31,0008.11,0003.83
2023-08-11 16:35:00,SystemResetWarning,0831.3,4.99,000.00,028.8,025.6,000.0,037.1,030.2,27.3,0000.0,0004.28,0009.00,0003.82
2023-08-11 16:36:00,SystemResetWarning,0831.3,5.00,000.00,028.8,026.0,000.0,037.1,030.3,28.2,0000.0,0004.28,0009.57,0003.81
2023-08-11 16:37:00,SystemResetWarning,0831.3,5.00,000.00,028.8,026.4,000.0,037.2,030.4,27.9,0000.0,0004.28,0009.72,0003.80
2023-08-11 16:38:00,SystemResetWarning,0831.3,5.00,000.00,028.8,026.7,000.0,037.2,030.5,27.8,0000.0,0004.26,0009.52,0003.79
2023-08-11 16:39:00,SystemResetWarning,0831.3,4.99,000.00,028.9,027.1,000.0,037.2,030.6,27.3,0000.0,0004.26,0009.20,0003.77
2023-08-11 16:40:00,SystemResetWarning,0831.3,5.00,000.00,028.9,027.4,000.0,037.3,030.7,27.3,0000.0,0004.23,0009.24,0003.76
2023-08-11 16:41:00,SystemResetWarning,0831.3,5.00,000.00,029.0,027.2,000.0,037.3,030.7,26.9,0000.0,0004.22,0009.41,0003.76
2023-08-11 16:42:00,SystemResetWarning,0831.3,4.99,000.00,028.9,025.8,000.0,037.1,030.3,26.7,0000.0,0004.22,0009.35,0003.76
2023-08-11 16:43:00,SystemResetWarning,0831.3,5.01,000.00,028.8,025.0,000.0,037.0,030.2,26.6,0000.0,0004.24,0009.39,0003.76
2023-08-11 16:44:00,SystemResetWarning,0831.3,5.01,000.00,028.8,025.3,000.0,037.0,030.2,28.0,0000.0,0004.24,0009.41,0003.77
2023-08-11 16:45:00,SystemResetWarning,0831.3,5.00,000.00,028.7,025.7,000.0,037.1,030.2,27.9,0000.0,0004.25,0009.34,0003.78
2023-08-11 16:46:00,SystemResetWarning,0831.3,5.00,000.00,028.7,026.1,000.0,037.1,030.3,27.3,0000.0,0004.24,0008.43,0003.79
2023-08-11 16:47:00,SystemResetWarning,0831.3,5.00,000.00,028.8,026.5,000.0,037.2,030.4,27.6,0000.0,0004.26,0007.89,0003.80
2023-08-11 16:48:00,SystemResetWarning,0831.3,5.00,000.00,028.8,026.9,000.0,037.2,030.5,28.3,0000.0,0004.27,0007.61,0003.82
2023-08-11 16:49:00,SystemResetWarning,0831.3,4.99,000.00,028.9,027.2,000.0,037.2,030.6,28.8,0000.0,0004.32,0008.09,0003.84
2023-08-11 16:50:00,SystemResetWarning,0831.3,5.00,000.00,028.9,027.4,000.0,037.3,030.7,28.0,0000.0,0004.36,0008.69,0003.87
2023-08-11 16:51:00,SystemResetWarning,0831.3,4.99,000.00,028.9,026.7,000.0,037.2,030.6,28.1,0000.0,0004.42,0009.00,0003.90
2023-08-11 16:52:00,SystemResetWarning,0831.3,5.02,000.00,028.9,025.3,000.0,037.0,030.2,26.8,0000.0,0004.45,0008.91,0003.92
2023-08-11 16:53:00,SystemResetWarning,0831.3,5.01,000.00,028.8,025.1,000.0,037.0,030.2,27.8,0000.0,0004.48,0008.98,0003.94
2023-08-11 16:54:00,SystemResetWarning,0831.3,5.00,000.00,028.8,025.5,000.0,037.0,030.2,27.8,0000.0,0004.49,0009.12,0003.96
2023-08-11 16:55:00,SystemResetWarning,0831.3,5.01,000.00,028.7,025.9,000.0,037.1,030.2,27.7,0000.0,0004.53,0009.20,0003.98
2023-08-11 16:56:00,SystemResetWarning,0831.3,5.00,000.00,028.7,026.3,000.0,037.1,030.3,27.4,0000.0,0004.56,0009.33,0003.98
2023-08-11 16:57:00,SystemResetWarning,0831.3,5.00,000.00,028.8,026.7,000.0,037.1,030.4,27.4,0000.0,0004.60,0009.55,0003.99
2023-08-11 16:58:00,SystemResetWarning,0831.3,5.01,000.00,028.8,027.0,000.0,037.2,030.6,27.1,0000.0,0004.60,0010.11,0004.00
2023-08-11 16:59:00,SystemResetWarning,0831.4,5.00,000.00,028.9,027.3,000.0,037.2,030.6,27.1,0000.0,0004.62,0010.40,0004.01
